Hourly Weather Hrazdan

Today, 6 August, Thursday

Time Temperature Precipitation Wind Pressure Humidity
00:00 +12°C° 0 mm 2 mps 610 mmHg 83%
01:00 +10°C° 0 mm 2 mps 610 mmHg 83%
02:00 +10°C° 0 mm 2 mps 610 mmHg 83%
03:00 +10°C° 0 mm 2 mps 610 mmHg 83%
04:00 +10°C° 0 mm 2 mps 610 mmHg 84%
05:00 +10°C° 0 mm 2 mps 611 mmHg 84%
06:00 +12°C° 0 mm 2 mps 611 mmHg 85%
07:00 +14°C° 0 mm 2 mps 612 mmHg 78%
08:00 +16°C° 0 mm 2 mps 612 mmHg 71%
09:00 +18°C° 0 mm 2 mps 613 mmHg 64%
10:00 +18°C° 0 mm 2 mps 613 mmHg 62%
11:00 +19°C° 0 mm 2 mps 613 mmHg 61%
12:00 +20°C° 0 mm 3 mps 614 mmHg 59%
13:00 +20°C° 0 mm 3 mps 614 mmHg 60%
14:00 +20°C° 0 mm 3 mps 614 mmHg 61%
15:00 +20°C° 0 mm 3 mps 614 mmHg 63%
16:00 +20°C° 0 mm 3 mps 613 mmHg 66%
17:00 +19°C° 0 mm 3 mps 613 mmHg 68%
18:00 +18°C° 0 mm 3 mps 613 mmHg 71%
19:00 +17°C° 0 mm 3 mps 613 mmHg 76%
20:00 +14°C° 0 mm 3 mps 613 mmHg 80%
21:00 +13°C° 0 mm 2 mps 613 mmHg 84%
22:00 +13°C° 0 mm 2 mps 613 mmHg 84%
23:00 +13°C° 0 mm 2 mps 613 mmHg 84%

Tomorrow, 7 August, Friday

Time Temperature Precipitation Wind Pressure Humidity
00:00 +12°C° 0 mm 2 mps 613 mmHg 84%
01:00 +12°C° 0 mm 2 mps 613 mmHg 84%
02:00 +12°C° 0 mm 2 mps 613 mmHg 84%
03:00 +10°C° 0 mm 2 mps 613 mmHg 83%
04:00 +12°C° 0 mm 2 mps 613 mmHg 83%
05:00 +12°C° 0 mm 2 mps 614 mmHg 83%
06:00 +12°C° 0 mm 2 mps 614 mmHg 83%
07:00 +14°C° 0 mm 2 mps 614 mmHg 77%
08:00 +16°C° 0 mm 2 mps 615 mmHg 71%
09:00 +18°C° 0 mm 2 mps 616 mmHg 65%
10:00 +18°C° 0 mm 2 mps 616 mmHg 62%
11:00 +19°C° 0 mm 2 mps 616 mmHg 59%
12:00 +20°C° 0 mm 2 mps 616 mmHg 57%
13:00 +21°C° 0 mm 2 mps 616 mmHg 56%
14:00 +21°C° 0 mm 3 mps 615 mmHg 55%
15:00 +21°C° 0 mm 3 mps 615 mmHg 55%
16:00 +21°C° 0 mm 3 mps 615 mmHg 59%
17:00 +20°C° 0 mm 3 mps 614 mmHg 62%
18:00 +19°C° 0 mm 3 mps 614 mmHg 66%
19:00 +17°C° 0 mm 2 mps 614 mmHg 71%
20:00 +16°C° 0 mm 2 mps 614 mmHg 76%
21:00 +14°C° 0 mm 2 mps 613 mmHg 81%
22:00 +14°C° 0 mm 2 mps 613 mmHg 81%
23:00 +13°C° 0 mm 2 mps 613 mmHg 81%

Day after tomorrow, 8 August, Saturday

Time Temperature Precipitation Wind Pressure Humidity
00:00 +13°C° 0 mm 2 mps 613 mmHg 81%
01:00 +13°C° 0 mm 2 mps 613 mmHg 79%
02:00 +13°C° 0 mm 2 mps 613 mmHg 77%
03:00 +12°C° 0 mm 1 mps 612 mmHg 76%
04:00 +13°C° 0 mm 1 mps 613 mmHg 75%
05:00 +13°C° 0 mm 1 mps 613 mmHg 74%
06:00 +13°C° 0 mm 1 mps 613 mmHg 74%
07:00 +15°C° 0 mm 1 mps 613 mmHg 69%
08:00 +17°C° 0 mm 2 mps 614 mmHg 63%
09:00 +19°C° 0 mm 2 mps 615 mmHg 58%
10:00 +20°C° 0 mm 2 mps 615 mmHg 55%
11:00 +23°C° 0 mm 2 mps 615 mmHg 51%
12:00 +24°C° 0 mm 2 mps 615 mmHg 48%
13:00 +24°C° 0 mm 2 mps 614 mmHg 47%
14:00 +24°C° 0 mm 2 mps 614 mmHg 46%
15:00 +25°C° 0 mm 2 mps 614 mmHg 46%
16:00 +24°C° 0 mm 2 mps 613 mmHg 52%
17:00 +23°C° 0 mm 2 mps 613 mmHg 58%
18:00 +21°C° 0 mm 2 mps 612 mmHg 64%
19:00 +19°C° 0 mm 2 mps 612 mmHg 70%
20:00 +17°C° 0 mm 2 mps 611 mmHg 76%
21:00 +16°C° 0 mm 2 mps 611 mmHg 81%
22:00 +15°C° 0 mm 2 mps 611 mmHg 81%
23:00 +15°C° 0 mm 2 mps 611 mmHg 80%

9 August, Sunday

Time Temperature Precipitation Wind Pressure Humidity
00:00 +15°C° 0 mm 2 mps 611 mmHg 80%
01:00 +14°C° 0 mm 2 mps 611 mmHg 80%
02:00 +14°C° 0 mm 2 mps 610 mmHg 80%
03:00 +14°C° 0 mm 2 mps 610 mmHg 80%
04:00 +14°C° 0 mm 1 mps 610 mmHg 80%
05:00 +14°C° 0 mm 1 mps 610 mmHg 79%
06:00 +15°C° 0 mm 1 mps 611 mmHg 79%
07:00 +18°C° 0 mm 1 mps 611 mmHg 72%
08:00 +19°C° 0 mm 2 mps 612 mmHg 65%
09:00 +21°C° 0 mm 2 mps 612 mmHg 59%
10:00 +23°C° 0 mm 2 mps 612 mmHg 55%
11:00 +24°C° 0 mm 2 mps 613 mmHg 52%
12:00 +25°C° 0 mm 2 mps 613 mmHg 49%
13:00 +25°C° 0.2 mm 2 mps 612 mmHg 48%
14:00 +26°C° 0.2 mm 2 mps 612 mmHg 47%
15:00 +26°C° 0.2 mm 2 mps 612 mmHg 47%
16:00 +25°C° 0.2 mm 2 mps 611 mmHg 54%
17:00 +24°C° 0.2 mm 2 mps 611 mmHg 60%
18:00 +23°C° 0.2 mm 2 mps 610 mmHg 67%
19:00 +20°C° 0.1 mm 2 mps 610 mmHg 71%
20:00 +18°C° 0.1 mm 2 mps 610 mmHg 75%
21:00 +16°C° 0.1 mm 2 mps 609 mmHg 80%
22:00 +16°C° 0.2 mm 2 mps 610 mmHg 79%
23:00 +16°C° 0.2 mm 2 mps 610 mmHg 79%

10 August, Monday

Time Temperature Precipitation Wind Pressure Humidity
00:00 +16°C° 0.2 mm 2 mps 610 mmHg 78%
01:00 +16°C° 0 mm 2 mps 610 mmHg 79%
02:00 +16°C° 0 mm 2 mps 610 mmHg 79%
03:00 +15°C° 0 mm 2 mps 610 mmHg 79%
04:00 +15°C° 0 mm 2 mps 610 mmHg 78%
05:00 +15°C° 0 mm 2 mps 610 mmHg 77%
06:00 +16°C° 0 mm 1 mps 610 mmHg 76%
07:00 +18°C° 0 mm 2 mps 611 mmHg 69%
08:00 +20°C° 0 mm 2 mps 611 mmHg 63%
09:00 +23°C° 0 mm 2 mps 612 mmHg 57%
10:00 +24°C° 0 mm 2 mps 612 mmHg 54%
11:00 +25°C° 0 mm 2 mps 612 mmHg 51%
12:00 +26°C° 0 mm 2 mps 613 mmHg 48%
13:00 +26°C° 0.2 mm 3 mps 612 mmHg 48%
14:00 +26°C° 0.2 mm 3 mps 612 mmHg 49%
15:00 +26°C° 0.2 mm 3 mps 612 mmHg 49%
16:00 +25°C° 0.2 mm 3 mps 611 mmHg 55%
17:00 +24°C° 0.2 mm 3 mps 611 mmHg 62%
18:00 +22°C° 0.2 mm 3 mps 611 mmHg 68%
19:00 +20°C° 0 mm 3 mps 611 mmHg 73%
20:00 +18°C° 0 mm 3 mps 610 mmHg 78%
21:00 +16°C° 0 mm 3 mps 610 mmHg 82%
22:00 +16°C° 0 mm 3 mps 611 mmHg 82%
23:00 +16°C° 0 mm 3 mps 611 mmHg 82%

11 August, Tuesday

Time Temperature Precipitation Wind Pressure Humidity
00:00 +14°C° 0 mm 3 mps 611 mmHg 82%
01:00 +14°C° 0 mm 3 mps 611 mmHg 83%
02:00 +15°C° 0 mm 2 mps 611 mmHg 84%
03:00 +14°C° 0 mm 2 mps 611 mmHg 85%
04:00 +14°C° 0 mm 2 mps 611 mmHg 84%
05:00 +15°C° 0 mm 2 mps 611 mmHg 84%
06:00 +15°C° 0 mm 2 mps 612 mmHg 84%
07:00 +16°C° 0 mm 2 mps 612 mmHg 76%
08:00 +18°C° 0 mm 2 mps 613 mmHg 68%
09:00 +20°C° 0 mm 2 mps 613 mmHg 61%
10:00 +21°C° 0 mm 2 mps 613 mmHg 58%
11:00 +23°C° 0 mm 2 mps 614 mmHg 56%
12:00 +24°C° 0 mm 3 mps 614 mmHg 54%
13:00 +25°C° 0.1 mm 3 mps 613 mmHg 53%
14:00 +25°C° 0.1 mm 3 mps 613 mmHg 53%
15:00 +25°C° 0.1 mm 3 mps 613 mmHg 53%
16:00 +24°C° 0.2 mm 3 mps 613 mmHg 59%
17:00 +22°C° 0.2 mm 3 mps 612 mmHg 64%
18:00 +21°C° 0.2 mm 3 mps 612 mmHg 69%
19:00 +19°C° 0 mm 3 mps 612 mmHg 74%
20:00 +18°C° 0 mm 3 mps 612 mmHg 79%
21:00 +16°C° 0 mm 3 mps 612 mmHg 84%
22:00 +16°C° 0 mm 3 mps 612 mmHg 84%
23:00 +14°C° 0 mm 3 mps 612 mmHg 84%
Show more